Location: Boursonne
(49.2024°N, 3.0468°E)
Time: 09:39:39
(UTC+00:00)

SME Rocket - Pass Details

Date: 03 March 2021
Orbit: 550 x 2652 km, 99.9° (Epoch: 10 April)

Event Time Altitude Azimuth Distance (km) Brightness Sun altitude
Rises 19:06:00 0° 16° (NNE) 5,073 7.6 -15.7°
Reaches altitude 10° 19:09:42 10° 21° (NNE) 3,751 6.9 -16.3°
Maximum altitude 19:17:50 51° 96° (E) 1,364 4.3 -17.6°
Drops below altitude 10° 19:23:08 10° 172° (S) 2,466 5.9 -18.5°
Sets 19:25:08 0° 178° (S) 3,222 6.6 -18.8°
